CAPE
0 0 0 0 0 0 0 0 0 0 0 0 0 0 0 0 0 0 0 0 0 0 0 0 0 0 0 22 167 365 81 10 4 101 146 208 112 44 15 110 203 372 267 510 405
0 0 0 0 0 0 0 0 0 0 0 0 0 0 0 0 0 0 0 0 0 0 0 0 0 0 0 6 28 1 0 12 3 51 133 86 240 318 316 344 296 79 445 516 481
0 0 0 0 0 0 0 0 0 0 0 0 0 0 0 0 0 0 0 0 0 0 0 0 0 0 2 25 2 0 0 0 44 95 216 38 393 457 82 403 384 288 501 508 529
0 0 0 0 0 0 0 0 0 0 0 0 0 0 0 0 0 0 0 0 0 0 0 0 0 0 10 0 0 13 41 0 0 56 40 24 169 129 8 191 695 359 476 502 531
0 0 0 0 0 0 0 0 0 0 0 0 0 0 0 0 0 0 0 0 0 0 0 0 0 0 3 0 0 30 0 0 3 5 0 13 146 574 255 561 385 259 440 482 476
0 0 0 0 0 0 0 0 0 0 0 0 0 0 0 0 0 0 0 0 0 0 0 0 0 0 1 0 0 3 18 3 16 0 0 3 112 277 606 494 352 333 416 455 517
0 0 0 0 0 0 0 0 0 0 0 0 0 0 0 0 0 0 0 0 0 0 0 0 0 0 0 0 2 0 0 7 0 2 0 0 151 435 599 664 631 669 599 566 552
0 0 0 0 0 0 0 0 0 0 0 0 0 0 0 0 0 0 0 0 0 0 0 0 0 0 0 0 0 0 12 4 11 0 0 12 264 679 620 807 924 879 835 839 924
0 0 0 0 0 0 0 0 0 0 0 0 0 0 0 0 0 0 0 0 0 0 0 0 0 0 0 0 13 1 13 4 13 0 0 0 201 595 545 549 604 890 857 1007 964
0 0 0 0 0 0 0 0 0 0 0 0 0 0 0 0 0 0 0 0 0 0 0 0 0 0 0 0 1 0 1 15 17 5 1 21 104 269 218 329 453 577 548 720 757
0 0 0 0 0 0 0 0 0 0 0 0 0 0 0 0 0 0 0 0 0 0 0 0 0 0 0 0 0 18 6 0 13 31 48 8 3 78 25 107 352 501 451 425 342
0 0 0 0 0 0 0 0 0 0 0 0 0 0 0 0 0 0 0 0 0 0 0 0 0 0 0 0 0 0 1 1 7 23 56 47 46 49 30 32 184 417 470 346 436
0 0 0 0 0 0 0 0 0 0 0 0 0 0 0 0 0 0 0 0 0 0 0 0 0 0 0 0 0 0 0 0 6 23 4 66 79 26 61 72 80 133 316 333 289
0 0 0 0 0 0 0 0 0 0 0 0 0 0 0 0 0 0 0 0 0 0 0 0 0 0 0 0 0 0 0 0 0 6 5 0 0 22 9 11 89 62 104 195 196
0 0 0 0 0 0 0 0 0 0 0 0 0 0 0 0 0 0 0 0 0 0 0 0 0 0 0 0 0 0 0 0 0 0 0 0 0 55 42 2 24 53 68 88 144
0 0 0 0 0 0 0 0 0 0 0 0 0 0 0 0 0 0 0 0 0 0 0 0 0 0 0 0 0 0 0 0 0 0 0 0 15 81 79 189 4 16 77 78 120
0 0 0 0 0 0 0 0 0 0 0 0 0 0 0 0 0 0 0 0 0 0 0 0 0 0 0 0 0 0 0 0 0 0 0 0 3 14 39 29 121 18 9 70 161
0 0 0 0 0 0 0 0 0 0 0 0 0 0 0 0 0 0 0 0 0 0 0 0 0 0 0 0 0 0 0 0 0 0 1 1 1 11 9 79 161 155 339 84 67
0 0 0 0 0 0 0 0 0 0 0 0 1 0 0 0 0 0 0 0 0 0 0 0 0 0 0 0 0 0 0 0 0 0 0 0 0 0 0 0 0 16 0 200 85
0 0 0 0 0 0 0 0 0 0 0 9 1 1 0 0 0 0 0 0 0 0 0 0 0 0 0 0 0 0 0 0 0 0 0 1 0 0 13 0 0 0 0 17 246
0 0 0 0 0 0 0 0 0 0 0 2 15 8 1 0 0 0 0 0 0 0 0 0 0 0 0 0 0 0 0 0 0 0 0 0 4 3 3 0 0 0 0 0 16
0 0 0 0 0 0 0 0 0 0 0 7 4 0 22 37 0 0 0 0 0 0 0 0 0 0 0 0 0 0 0 1 0 2 0 0 0 0 0 0 0 0 0 0 41
0 0 0 0 0 0 0 0 0 0 1 12 0 0 0 10 11 0 0 0 0 0 0 0 0 0 0 0 0 0 1 0 0 0 0 10 14 0 0 0 0 0 0 44 53
0 0 0 0 0 0 0 0 0 0 0 29 11 2 0 6 12 6 1 0 0 0 0 0 0 0 0 0 0 0 0 0 0 11 2 3 67 1 0 5 0 0 4 12 225
0 0 0 1 0 0 0 0 70 1 18 33 17 0 52 68 34 6 2 0 0 1 0 0 0 0 0 0 1 4 0 0 0 0 0 8 3 19 0 0 0 0 0 0 40
0 0 0 0 0 0 0 0 92 75 54 47 24 5 11 44 225 338 188 134 3 3 0 0 0 0 0 0 0 0 0 25 0 0 0 0 0 2 20 0 0 0 0 0 0
0 0 0 0 0 0 3 35 104 90 76 11 37 74 74 195 171 192 89 135 148 46 2 14 0 0 0 0 0 0 1 2 21 18 0 5 72 107 7 0 0 0 0 0 0
CIN
0 0 0 0 0 0 0 0 0 0 0 0 0 0 0 0 0 0 0 0 0 0 0 0 0 0 0 -59 -11 -56 -42 -10 -72 -10 -6 -5 -15 -46 -47 -44 -31 -44 -109 -135 -125
0 0 0 0 0 0 0 0 0 0 0 0 0 0 0 0 0 0 0 0 0 0 0 0 0 0 0 -9 -5 -2 0 -18 -8 -6 -87 -68 -9 -8 -4 -8 -15 -72 -117 -158 -141
0 0 0 0 0 0 0 0 0 0 0 0 0 0 0 0 0 0 0 0 0 0 0 0 0 0 -5 -3 -6 0 0 0 -15 -6 -40 -54 -57 -79 -140 -13 -36 -83 -144 -172 -152
0 0 0 0 0 0 0 0 0 0 0 0 0 0 0 0 0 0 0 0 0 0 0 0 0 0 -7 0 0 -8 -11 0 0 -43 -15 -12 -14 -177 -180 -79 -41 -104 -123 -153 -151
0 0 0 0 0 0 0 0 0 0 0 0 0 0 0 0 0 0 0 0 0 0 0 0 0 0 -14 0 0 -7 0 0 -11 -21 0 -47 -50 -7 -79 -30 -66 -113 -111 -135 -131
0 0 0 0 0 0 0 0 0 0 0 0 0 0 0 0 0 0 0 0 0 0 0 0 0 0 -8 -3 0 -5 -3 -3 -5 0 0 -26 -25 -43 -10 -48 -83 -95 -104 -105 -92
0 0 0 0 0 0 0 0 0 0 0 0 0 0 0 0 0 0 0 0 0 0 0 0 0 0 0 0 -6 0 -1 -6 0 -5 0 0 -41 -48 -28 -21 -50 -68 -76 -66 -60
0 0 0 0 0 0 0 0 0 0 0 0 0 0 0 0 0 0 0 0 0 0 0 0 0 0 0 0 0 -1 -6 -3 -9 0 0 -19 -14 -30 -52 -19 -7 -18 -14 -16 -14
0 0 0 0 0 0 0 0 0 0 0 0 0 0 0 0 0 0 0 0 0 0 0 0 0 0 0 0 -3 -5 -6 -13 -18 0 0 0 -14 -38 -25 -24 -11 -2 -4 -4 -5
0 0 0 0 0 0 0 0 0 0 0 0 0 0 0 0 0 0 0 0 0 0 0 0 0 0 0 0 -4 0 -24 -15 -14 -63 -16 -113 -40 -48 -22 -10 -20 -3 -17 -14 -24
0 0 0 0 0 0 0 0 0 0 0 0 0 0 0 0 0 0 0 0 0 0 0 0 0 0 0 0 0 -5 -11 0 -31 -40 -83 -93 -76 -67 -65 -21 -19 -14 -45 -31 -52
0 0 0 0 0 0 0 0 0 0 0 0 0 0 0 0 0 0 0 0 0 0 0 0 0 0 0 0 0 0 -3 -2 -12 -1 -14 -30 -53 -19 -31 -46 -16 -13 -47 -42 -32
0 0 0 0 0 0 0 0 0 0 0 0 0 0 0 0 0 0 0 0 0 0 0 0 0 0 0 0 0 0 0 0 -14 -4 -17 -8 -18 -137 -15 -8 -21 -17 -40 -52 -62
0 0 0 0 0 0 0 0 0 0 0 0 0 0 0 0 0 0 0 0 0 0 0 0 0 0 0 0 0 0 0 0 0 -3 -3 0 0 -78 -24 -25 -28 -41 -51 -28 -64
0 0 0 0 0 0 0 0 0 0 0 0 0 0 0 0 0 0 0 0 0 0 0 0 0 0 0 0 0 0 0 0 0 0 0 0 -1 -30 -2 -8 -60 -55 -63 -36 -39
0 0 0 0 0 0 0 0 0 0 0 0 0 0 0 0 0 0 0 0 0 0 0 0 0 0 0 0 0 0 0 0 0 0 0 0 -6 -23 -48 -18 -19 -23 -17 -21 -20
0 0 0 0 0 0 0 0 0 0 0 0 0 0 0 0 0 0 0 0 0 0 0 0 0 0 0 0 0 0 0 0 0 0 0 -1 -5 -19 -27 -39 -33 -81 -94 -31 -42
0 0 0 0 0 0 0 0 0 0 0 0 0 0 0 0 0 0 0 0 0 0 0 0 0 0 0 0 0 0 0 0 0 0 -8 -11 -5 -44 -7 -5 -73 -41 -25 -37 -52
0 0 0 0 0 0 0 0 0 0 0 0 -2 0 0 0 0 0 0 0 0 0 0 0 0 0 0 0 0 0 0 0 0 0 0 -1 0 0 0 0 0 -13 0 -9 -29
0 0 0 0 0 0 0 0 0 0 0 -8 -5 -6 0 0 0 0 0 0 0 0 0 0 0 0 0 0 0 0 0 0 0 0 -1 -4 0 0 -15 0 0 0 0 -2 -9
0 0 0 0 0 0 0 0 0 0 0 -12 -10 -9 0 0 0 0 0 0 0 0 0 0 0 0 0 0 0 0 0 0 0 0 0 0 -44 -11 -18 0 0 0 0 0 -23
0 0 0 0 0 0 0 0 0 0 0 -11 -30 -1 -24 -8 0 0 0 0 0 0 0 0 0 0 0 0 0 0 0 -3 0 -2 -1 -1 0 0 0 0 0 0 0 0 -37
0 0 0 0 0 0 0 0 0 0 -13 -23 0 0 0 -12 -7 0 0 0 0 0 0 0 0 0 -1 -4 0 0 -5 0 0 0 -1 -5 -11 0 0 0 0 -1 0 -27 -43
0 0 0 0 0 0 0 0 0 0 0 -7 -12 -6 -19 -3 -12 -12 -4 0 0 0 0 -4 0 0 0 0 -6 0 0 0 -3 -6 -13 -16 -13 -11 0 -5 0 0 -38 -38 -22
0 0 -4 -13 0 0 0 0 -5 -2 -6 -10 -27 -4 -5 -4 -9 -8 -29 0 0 -2 0 0 0 0 0 0 -3 -22 -3 0 0 0 -2 -6 -9 -27 0 -2 0 0 0 0 -36
0 0 0 0 0 0 0 0 -8 -7 -5 -5 -19 -12 -12 -7 -6 -22 -48 -7 -7 -34 0 0 -8 0 0 0 0 0 0 -15 -6 0 0 -1 -5 -50 -36 -9 0 0 0 0 0
0 0 0 0 0 0 -36 -4 -32 -30 -15 -46 -8 -30 -10 -91 -49 -98 -100 -73 -51 -5 -45 -25 0 0 0 0 0 0 -7 -11 -16 -23 -2 -8 -7 -59 -20 0 0 0 0 0 0
Wind_Speed
31 32 32 33 33 32 32 31 31 31 31 30 28 25 24 26 27 25 26 26 25 27 25 24 23 22 19 18 17 20 16 8 10 19 24 25 26 21 20 25 25 21 26 30 31
33 33 33 33 33 33 33 33 32 32 31 31 28 26 23 24 21 26 30 29 26 27 26 26 23 22 21 18 16 18 8 17 18 19 17 11 18 19 22 22 23 25 28 28 29
34 34 34 34 34 34 33 33 33 33 31 30 28 26 23 21 17 23 28 32 31 30 29 27 24 24 22 20 14 12 7 11 15 10 23 25 17 14 12 23 23 25 27 28 28
35 35 35 35 35 34 34 33 33 33 31 27 25 25 23 19 16 14 17 31 33 31 30 28 26 23 22 20 16 10 10 10 9 13 7 15 19 21 21 25 22 24 26 26 25
36 36 36 36 36 35 35 34 34 33 30 27 25 23 22 21 25 1 7 25 27 32 33 30 28 25 22 21 17 5 10 8 10 18 13 17 18 22 25 24 24 24 24 23 23
36 37 37 37 36 36 36 35 35 32 29 26 25 23 22 23 14 12 17 27 33 35 33 31 29 26 21 18 21 7 9 18 14 12 15 19 22 23 22 23 23 23 22 22 22
37 37 37 38 37 37 37 36 35 31 28 25 23 21 27 27 18 12 19 29 35 35 33 32 30 24 25 25 8 7 12 17 18 16 5 20 22 24 23 22 22 21 22 21 20
38 38 38 38 38 38 37 37 35 31 27 23 22 21 24 27 23 27 24 26 34 36 35 31 27 27 28 19 22 19 22 25 16 12 11 13 17 18 20 21 21 21 20 20 20
39 39 39 39 39 39 38 37 34 29 26 22 21 20 29 10 11 29 27 24 32 34 34 27 30 29 29 29 26 29 24 17 10 11 10 12 18 16 18 19 20 21 20 20 20
40 40 40 39 39 39 39 36 28 24 23 22 26 23 28 22 12 9 22 24 26 29 28 25 30 28 30 23 28 24 24 16 9 9 12 14 12 14 17 17 18 18 18 19 19
40 40 40 40 39 38 35 27 23 22 21 26 20 23 18 18 7 7 13 19 22 29 26 24 29 26 27 28 31 27 26 3 13 8 13 10 12 15 17 16 16 16 16 17 19
40 41 41 41 39 38 30 25 30 30 35 35 38 35 30 11 9 8 12 15 19 25 25 21 27 28 27 27 31 29 5 1 1 3 4 6 10 15 14 12 13 14 14 15 17
41 41 41 41 40 28 23 31 33 32 36 41 37 33 26 16 15 12 12 14 15 22 25 23 25 31 27 24 26 28 19 3 2 2 11 3 5 2 20 8 9 10 10 13 14
41 40 40 41 29 27 25 24 23 29 34 37 31 34 23 22 23 16 15 13 12 20 18 31 24 28 29 25 19 24 13 30 12 6 9 2 11 4 16 4 4 5 7 11 14
41 40 39 32 32 25 28 28 26 26 28 18 20 15 21 22 20 17 16 18 14 14 12 21 34 25 24 28 23 14 18 21 13 8 10 5 4 3 8 6 3 10 10 10 14
42 41 38 30 18 21 32 31 26 23 27 16 10 18 21 23 27 20 19 26 32 20 24 37 27 19 15 25 12 17 18 12 2 3 18 12 7 0 7 9 7 15 10 11 12
43 42 37 29 21 22 26 23 24 28 27 24 13 19 23 23 26 23 21 23 23 20 17 17 30 11 12 7 11 9 4 2 2 6 7 7 11 5 2 7 7 10 28 16 10
44 44 32 16 19 30 19 23 31 29 37 28 12 18 27 24 28 25 24 26 25 24 20 18 18 10 10 11 6 7 5 3 0 3 1 4 4 7 6 3 11 10 20 12 13
43 32 31 21 13 19 19 29 29 35 33 33 29 24 27 28 28 26 29 28 25 25 22 16 20 11 12 18 10 8 10 13 24 25 19 8 10 8 6 7 11 8 10 9 11
35 32 32 20 5 12 22 35 36 41 40 33 33 28 28 28 31 27 31 33 34 29 45 16 20 12 16 15 21 17 8 17 20 19 22 15 17 12 1 4 6 7 9 10 7
27 26 23 3 7 18 27 32 38 44 39 33 32 28 28 28 32 29 30 32 37 33 41 41 17 14 13 19 16 14 20 17 20 16 15 18 15 10 5 6 8 8 8 10 10
26 24 10 5 20 26 32 40 40 41 40 29 34 33 31 33 36 38 30 29 27 40 34 41 26 29 20 12 12 13 15 16 22 22 24 25 21 5 6 6 6 9 12 11 14
26 30 25 18 33 32 35 42 42 42 39 34 32 38 33 34 36 42 38 18 22 34 38 34 30 27 24 14 13 27 18 12 19 24 25 22 15 7 7 7 9 9 14 11 9
24 26 24 25 33 38 36 40 39 40 45 36 29 36 40 38 36 37 29 40 20 22 37 34 32 31 31 25 10 14 21 24 30 25 25 20 14 10 7 8 7 10 10 13 9
22 23 24 24 28 34 40 38 36 38 36 37 32 36 33 31 32 34 38 22 35 30 23 34 30 32 34 37 36 34 14 22 30 38 35 28 21 21 14 12 14 15 18 19 17
26 26 29 34 32 31 31 40 37 33 32 33 34 35 33 34 30 26 25 34 40 18 21 23 28 28 34 33 33 35 38 16 16 25 34 31 35 11 8 8 12 19 21 23 22
25 27 27 31 32 30 31 30 35 33 25 35 23 29 30 29 24 25 25 24 20 21 26 23 29 31 35 31 35 38 33 38 26 18 18 30 26 9 9 18 22 22 23 26 28
Wind_Direction
320 319 317 315 312 306 301 300 298 295 289 284 276 263 258 263 255 229 215 213 197 216 225 212 204 209 210 202 205 184 211 276 352 59 81 86 88 57 65 96 112 104 104 111 116
321 319 317 314 313 308 303 300 299 296 290 284 274 265 255 258 227 219 214 219 221 196 202 199 201 201 199 203 172 170 229 75 84 90 55 284 115 71 94 94 99 86 98 109 117
320 318 317 314 312 309 304 300 299 298 293 284 273 266 254 246 212 214 196 190 203 196 196 203 213 219 214 206 172 232 296 307 40 6 85 112 32 19 301 102 98 103 109 115 118
319 317 316 314 312 309 305 301 300 299 295 286 276 269 258 208 168 269 241 167 198 200 194 199 205 207 201 200 221 289 350 344 342 5 322 31 28 50 113 154 102 108 112 114 118
317 316 314 314 311 310 306 302 301 298 294 288 280 275 271 191 201 297 66 221 217 197 185 190 189 199 201 183 210 353 11 333 25 76 31 20 9 64 117 121 104 108 114 115 118
316 314 313 311 310 310 306 302 300 297 291 288 286 279 266 196 181 93 130 157 179 180 179 191 189 200 220 226 204 337 30 90 63 17 48 56 53 64 79 96 101 111 113 118 122
316 313 311 309 308 307 305 301 299 294 293 288 288 281 246 196 257 104 136 159 178 175 179 190 202 221 204 197 316 292 71 85 92 73 341 56 51 74 89 100 106 109 115 118 121
319 313 309 308 306 304 302 300 297 291 289 285 285 279 262 228 213 195 157 155 179 194 196 198 215 216 209 242 222 126 129 148 97 68 263 348 89 76 95 105 105 117 115 119 119
316 314 309 306 304 302 300 294 294 291 284 281 284 282 253 283 257 221 167 152 168 178 195 229 213 207 201 188 163 172 156 122 76 81 40 85 124 99 109 108 113 122 116 118 122
313 312 308 304 303 301 299 292 301 295 286 276 268 275 258 266 264 160 154 152 157 162 176 186 182 183 194 152 166 158 171 137 112 120 100 107 95 111 123 115 113 119 116 121 124
311 310 308 302 299 302 304 304 300 294 283 266 277 266 288 258 236 226 150 150 153 166 164 165 169 173 170 168 191 180 189 118 167 116 114 109 119 127 134 120 122 120 117 123 125
310 308 307 301 294 295 299 288 280 298 279 268 257 254 259 247 244 210 169 157 159 163 163 156 175 177 176 176 192 195 309 123 220 53 34 67 118 143 133 123 126 130 125 127 122
308 307 306 301 293 308 305 279 288 290 277 266 256 252 252 250 248 213 199 171 169 166 167 168 171 187 184 173 183 199 173 315 164 353 312 342 72 135 232 130 121 134 134 138 132
307 305 306 305 306 307 299 294 306 293 278 265 253 246 240 247 248 227 212 214 230 172 168 186 173 183 189 183 167 185 170 214 174 132 169 275 194 238 175 178 151 160 155 153 145
305 303 303 311 296 301 292 298 303 288 271 281 240 243 234 237 241 226 213 223 238 241 231 178 196 183 185 193 185 178 173 182 175 180 187 191 203 163 176 194 233 175 173 164 157
300 299 303 302 313 298 273 283 284 271 258 283 241 239 229 235 239 228 223 233 240 252 250 234 251 236 180 190 171 166 284 175 213 212 209 197 174 226 286 239 227 289 241 175 169
296 291 291 295 296 303 291 287 268 257 254 269 244 242 237 238 233 225 216 219 228 243 237 245 191 251 256 203 172 169 276 290 283 199 201 186 199 202 198 216 190 151 189 176 176
294 285 293 297 287 269 291 272 258 258 245 252 269 249 244 236 235 226 224 228 231 245 248 243 245 222 236 188 224 229 217 260 124 353 266 312 341 180 327 38 178 174 184 186 181
295 295 284 292 290 276 273 260 257 249 244 251 266 259 245 239 238 229 231 233 230 235 244 232 254 223 219 252 232 249 238 201 284 296 310 321 321 322 336 330 310 318 292 230 193
298 292 280 281 249 273 263 258 254 238 236 269 261 258 244 238 235 231 234 237 238 238 229 246 258 227 246 253 257 260 265 276 278 299 302 305 310 307 278 9 8 356 318 309 205
299 290 294 208 274 263 258 259 248 235 254 263 254 261 253 243 239 239 243 241 236 237 235 232 248 248 227 246 240 248 268 273 278 284 304 308 321 28 29 27 28 13 6 337 317
291 279 278 272 267 263 257 242 238 239 240 266 251 256 266 255 245 242 242 240 235 233 236 237 261 261 225 235 215 248 255 273 273 284 288 292 315 17 24 17 6 358 356 355 328
285 270 274 269 258 258 255 236 239 239 246 257 256 249 261 262 257 242 245 236 239 236 236 238 250 256 257 238 227 253 260 251 274 279 283 290 296 347 359 356 357 1 355 358 350
284 272 271 262 261 254 252 244 249 244 238 250 264 252 248 259 255 249 245 238 210 235 237 240 245 251 255 257 231 241 258 263 270 275 281 283 300 301 315 310 340 342 358 354 342
280 272 289 265 263 258 250 251 254 249 248 254 260 258 254 255 253 250 238 241 240 243 235 240 250 253 255 258 259 259 250 264 268 269 276 279 277 287 309 297 321 322 332 334 339
285 278 279 262 267 268 254 245 253 254 252 253 251 257 250 250 257 258 261 248 237 231 234 238 248 255 260 263 263 267 266 249 258 271 270 276 269 281 270 331 310 316 324 328 329
298 291 280 259 262 265 256 258 251 250 256 241 250 254 252 260 267 258 262 263 253 232 236 242 248 255 261 263 267 266 268 263 277 264 271 277 289 309 304 292 303 318 325 326 326